Hourly Data Report for July 18, 2021

RANKIN INLET A
NUNAVUT
Current Station Operator: NAVCAN

62°48'38.000" N
92°06'53.000" W
32.30 m
2303405
71083
YRT

Download Data

Hourly Data (July 2021)
Hourly Data Report for July 18, 2021
TIME
LST
Temp Definition
°C
Dew Point Definition
°C
Rel Hum Definition
%
Precip. Amount Definition
mm

Wind Dir Definition
10's deg

Wind Spd Definition
km/h
Visibility Definition
km
Stn Press Definition
kPa
Hmdx Definition


Wind Chill Definition


Weather Definition


00:00 9.3 6.3 81   30 28 24.1 101.57     Mainly Clear
01:00 9.4 7.2 86   33 36 24.1 101.58     LegendNANA
02:00 9.0 6.4 84   34 27 24.1 101.60     LegendNANA
03:00 8.3 4.2 75   34 28 24.1 101.64     Mostly Cloudy
04:00 8.0 3.3 72   33 33 24.1 101.67     LegendNANA
05:00 8.3 3.2 70   32 26 24.1 101.71     LegendNANA
06:00 9.1 3.7 69   32 26 24.1 101.73     Mainly Clear
07:00 10.1 3.8 65   32 31 24.1 101.72     LegendNANA
08:00 11.6 4.2 60   30 31 24.1 101.72     LegendNANA
09:00 12.3 4.5 59   29 36 24.1 101.67     Mainly Clear
10:00 14.3 5.5 55   30 34 24.1 101.61     LegendNANA
11:00 15.3 5.1 50   32 40 24.1 101.55     LegendNANA
12:00 16.1 5.2 48   32 39 24.1 101.52     Mainly Clear
13:00 17.3 4.8 43   31 40 24.1 101.50     LegendNANA
14:00 16.9 5.5 47   30 32 24.1 101.47     LegendNANA
15:00 16.8 5.6 47   31 40 24.1 101.43     Mostly Cloudy
16:00 16.2 5.8 50   31 39 24.1 101.42     LegendNANA
17:00 16.4 6.3 51   31 34 24.1 101.42     LegendNANA
18:00 15.9 6.6 54   31 25 24.1 101.40     Mostly Cloudy
19:00 16.4 8.4 59   30 17 24.1 101.36     LegendNANA
20:00 13.2 8.5 73   30 14 24.1 101.37     LegendNANA
21:00 12.4 8.5 77   31 17 24.1 101.36     Mostly Cloudy
22:00 13.5 8.2 70   31 19 24.1 101.35     LegendNANA
23:00 13.3 9.1 76   30 18 24.1 101.35     LegendNANA

Notes on Data Quality.

Legend

  • E = Estimated
  • M = Missing
  • NA = Not Available*
  • [empty] = Indicates an unobserved value
Date modified: